When you browse on this site, cookies collect data to enhance your experience and personalize the content and advertising you see.
Visit our Privacy Policy to learn more. By continuing to use the site, you agree to this use of cookies and data.
  • In Netherlands
  • List of Countries
  • For 7 days
  • Water Temperature
  • Weather Map
  • Weather Widgets
  • user-avatar
    Login

    Hourly Weather Kachan

    Today, 15 September, Sunday

    Time Temperature Precipitation Wind Pressure Humidity
    00:00 +8°C° 0 mm 3 mps 744 mmHg 82%
    01:00 +8°C° 0 mm 3 mps 744 mmHg 84%
    02:00 +7°C° 0 mm 3 mps 744 mmHg 86%
    03:00 +7°C° 0 mm 3 mps 744 mmHg 86%
    04:00 +7°C° 0 mm 3 mps 744 mmHg 87%
    05:00 +7°C° 0 mm 3 mps 744 mmHg 88%
    06:00 +5°C° 0 mm 4 mps 744 mmHg 89%
    07:00 +6°C° 0 mm 4 mps 744 mmHg 85%
    08:00 +7°C° 0 mm 4 mps 744 mmHg 81%
    09:00 +8°C° 0 mm 5 mps 744 mmHg 76%
    10:00 +10°C° 0 mm 5 mps 744 mmHg 69%
    11:00 +12°C° 0 mm 5 mps 744 mmHg 62%
    12:00 +13°C° 0 mm 6 mps 744 mmHg 55%
    13:00 +13°C° 0 mm 6 mps 743 mmHg 53%
    14:00 +14°C° 0 mm 6 mps 743 mmHg 51%
    15:00 +14°C° 0 mm 5 mps 743 mmHg 48%
    16:00 +13°C° 0 mm 5 mps 742 mmHg 51%
    17:00 +13°C° 0 mm 4 mps 742 mmHg 54%
    18:00 +12°C° 0 mm 4 mps 741 mmHg 57%
    19:00 +12°C° 0 mm 4 mps 741 mmHg 60%
    20:00 +10°C° 0 mm 5 mps 740 mmHg 63%
    21:00 +10°C° 0 mm 5 mps 740 mmHg 65%
    22:00 +10°C° 0.3 mm 5 mps 739 mmHg 70%
    23:00 +10°C° 0.3 mm 6 mps 738 mmHg 74%

    Tomorrow, 16 September, Monday

    Time Temperature Precipitation Wind Pressure Humidity
    00:00 +10°C° 0.3 mm 6 mps 738 mmHg 79%
    01:00 +10°C° 0.2 mm 7 mps 737 mmHg 79%
    02:00 +10°C° 0.2 mm 7 mps 736 mmHg 78%
    03:00 +10°C° 0.2 mm 7 mps 736 mmHg 78%
    04:00 +10°C° 0.3 mm 7 mps 735 mmHg 80%
    05:00 +10°C° 0.3 mm 8 mps 735 mmHg 82%
    06:00 +9°C° 0.3 mm 8 mps 734 mmHg 84%
    07:00 +9°C° 0.3 mm 8 mps 734 mmHg 85%
    08:00 +9°C° 0.3 mm 8 mps 733 mmHg 86%
    09:00 +9°C° 0.3 mm 8 mps 733 mmHg 87%
    10:00 +10°C° 0.1 mm 8 mps 733 mmHg 84%
    11:00 +11°C° 0.1 mm 9 mps 733 mmHg 80%
    12:00 +12°C° 0.1 mm 9 mps 732 mmHg 76%
    13:00 +12°C° 0.3 mm 9 mps 732 mmHg 77%
    14:00 +11°C° 0.3 mm 8 mps 732 mmHg 77%
    15:00 +11°C° 0.3 mm 7 mps 732 mmHg 78%
    16:00 +11°C° 0 mm 7 mps 732 mmHg 75%
    17:00 +11°C° 0 mm 6 mps 732 mmHg 72%
    18:00 +11°C° 0 mm 6 mps 732 mmHg 69%
    19:00 +10°C° 0 mm 6 mps 732 mmHg 72%
    20:00 +10°C° 0 mm 6 mps 732 mmHg 75%
    21:00 +9°C° 0 mm 6 mps 732 mmHg 78%
    22:00 +9°C° 0 mm 6 mps 732 mmHg 79%
    23:00 +8°C° 0 mm 6 mps 732 mmHg 81%

    Day after tomorrow, 17 September, Tuesday

    Time Temperature Precipitation Wind Pressure Humidity
    00:00 +8°C° 0 mm 6 mps 732 mmHg 82%
    01:00 +8°C° 0 mm 6 mps 732 mmHg 83%
    02:00 +8°C° 0 mm 6 mps 732 mmHg 84%
    03:00 +7°C° 0 mm 6 mps 732 mmHg 84%
    04:00 +7°C° 0 mm 6 mps 732 mmHg 84%
    05:00 +7°C° 0 mm 6 mps 732 mmHg 84%
    06:00 +7°C° 0 mm 6 mps 731 mmHg 83%
    07:00 +8°C° 0 mm 6 mps 732 mmHg 79%
    08:00 +9°C° 0 mm 7 mps 732 mmHg 74%
    09:00 +9°C° 0 mm 7 mps 732 mmHg 70%
    10:00 +10°C° 0.1 mm 7 mps 732 mmHg 66%
    11:00 +11°C° 0.1 mm 8 mps 732 mmHg 62%
    12:00 +11°C° 0.1 mm 8 mps 732 mmHg 58%
    13:00 +12°C° 0 mm 8 mps 732 mmHg 56%
    14:00 +12°C° 0 mm 7 mps 732 mmHg 54%
    15:00 +12°C° 0 mm 7 mps 732 mmHg 52%
    16:00 +11°C° 0 mm 6 mps 732 mmHg 56%
    17:00 +12°C° 0 mm 5 mps 731 mmHg 60%
    18:00 +10°C° 0 mm 5 mps 731 mmHg 64%
    19:00 +10°C° 0.1 mm 4 mps 731 mmHg 70%
    20:00 +10°C° 0.1 mm 4 mps 731 mmHg 75%
    21:00 +8°C° 0.1 mm 4 mps 731 mmHg 80%
    22:00 +7°C° 0 mm 4 mps 731 mmHg 82%
    23:00 +8°C° 0 mm 3 mps 731 mmHg 85%

    18 September, Wednesday

    Time Temperature Precipitation Wind Pressure Humidity
    00:00 +7°C° 0 mm 3 mps 731 mmHg 87%
    01:00 +7°C° 0 mm 3 mps 730 mmHg 89%
    02:00 +7°C° 0 mm 3 mps 730 mmHg 91%
    03:00 +5°C° 0 mm 3 mps 730 mmHg 93%
    04:00 +5°C° 0 mm 3 mps 730 mmHg 93%
    05:00 +5°C° 0 mm 3 mps 730 mmHg 94%
    06:00 +4°C° 0 mm 3 mps 729 mmHg 94%
    07:00 +5°C° 0.2 mm 4 mps 729 mmHg 91%
    08:00 +6°C° 0.2 mm 5 mps 729 mmHg 88%
    09:00 +7°C° 0.2 mm 5 mps 729 mmHg 86%
    10:00 +7°C° 0.4 mm 5 mps 729 mmHg 84%
    11:00 +8°C° 0.4 mm 5 mps 729 mmHg 83%
    12:00 +8°C° 0.4 mm 5 mps 729 mmHg 81%
    13:00 +8°C° 0.4 mm 6 mps 729 mmHg 81%
    14:00 +8°C° 0.4 mm 6 mps 729 mmHg 81%
    15:00 +6°C° 0.4 mm 7 mps 729 mmHg 81%
    16:00 +6°C° 0.1 mm 7 mps 729 mmHg 83%
    17:00 +5°C° 0.1 mm 7 mps 729 mmHg 86%
    18:00 +4°C° 0.1 mm 7 mps 729 mmHg 88%
    19:00 +5°C° 0.1 mm 7 mps 730 mmHg 88%
    20:00 +5°C° 0.1 mm 7 mps 731 mmHg 89%
    21:00 +5°C° 0.1 mm 7 mps 731 mmHg 89%
    22:00 +5°C° 0 mm 6 mps 732 mmHg 90%
    23:00 +4°C° 0 mm 6 mps 732 mmHg 92%

    19 September, Thursday

    Time Temperature Precipitation Wind Pressure Humidity
    00:00 +4°C° 0 mm 6 mps 733 mmHg 93%
    01:00 +4°C° 0 mm 6 mps 733 mmHg 93%
    02:00 +5°C° 0 mm 5 mps 734 mmHg 93%
    03:00 +3°C° 0 mm 5 mps 735 mmHg 93%
    04:00 +3°C° 0 mm 5 mps 735 mmHg 94%
    05:00 +3°C° 0 mm 5 mps 736 mmHg 94%
    06:00 +3°C° 0 mm 5 mps 736 mmHg 95%
    07:00 +3°C° 0 mm 5 mps 736 mmHg 93%
    08:00 +5°C° 0 mm 5 mps 737 mmHg 92%
    09:00 +5°C° 0 mm 4 mps 738 mmHg 90%
    10:00 +6°C° 0 mm 4 mps 738 mmHg 85%
    11:00 +7°C° 0 mm 4 mps 739 mmHg 80%
    12:00 +8°C° 0 mm 4 mps 739 mmHg 75%
    13:00 +10°C° 0.2 mm 4 mps 739 mmHg 72%
    14:00 +10°C° 0.2 mm 4 mps 739 mmHg 69%
    15:00 +11°C° 0.2 mm 4 mps 739 mmHg 66%
    16:00 +10°C° 0.3 mm 3 mps 739 mmHg 71%
    17:00 +9°C° 0.3 mm 2 mps 739 mmHg 75%
    18:00 +9°C° 0.3 mm 2 mps 740 mmHg 79%
    19:00 +8°C° 0.4 mm 2 mps 740 mmHg 82%
    20:00 +8°C° 0.4 mm 2 mps 740 mmHg 85%
    21:00 +7°C° 0.4 mm 2 mps 740 mmHg 88%
    22:00 +7°C° 0.6 mm 2 mps 740 mmHg 88%
    23:00 +7°C° 0.6 mm 2 mps 740 mmHg 89%

    20 September, Friday

    Time Temperature Precipitation Wind Pressure Humidity
    00:00 +7°C° 0.6 mm 2 mps 740 mmHg 89%
    01:00 +6°C° 0.2 mm 2 mps 740 mmHg 89%
    02:00 +6°C° 0.2 mm 2 mps 740 mmHg 88%
    03:00 +5°C° 0.2 mm 2 mps 740 mmHg 88%
    04:00 +5°C° 0.1 mm 2 mps 741 mmHg 90%
    05:00 +4°C° 0.1 mm 2 mps 741 mmHg 91%
    06:00 +3°C° 0.1 mm 3 mps 741 mmHg 93%
    07:00 +3°C° 0 mm 3 mps 741 mmHg 90%
    08:00 +4°C° 0 mm 3 mps 741 mmHg 86%
    09:00 +5°C° 0 mm 3 mps 742 mmHg 83%
    10:00 +6°C° 0.2 mm 4 mps 742 mmHg 76%
    11:00 +7°C° 0.2 mm 4 mps 742 mmHg 70%
    12:00 +8°C° 0.2 mm 4 mps 743 mmHg 63%
    13:00 +8°C° 0.1 mm 4 mps 743 mmHg 59%
    14:00 +8°C° 0.1 mm 4 mps 743 mmHg 55%
    15:00 +10°C° 0.1 mm 3 mps 743 mmHg 50%
    16:00 +9°C° 0.1 mm 3 mps 743 mmHg 56%
    17:00 +8°C° 0.1 mm 3 mps 743 mmHg 61%
    18:00 +7°C° 0.1 mm 2 mps 743 mmHg 66%
    19:00 +6°C° 0 mm 2 mps 743 mmHg 70%
    20:00 +5°C° 0 mm 2 mps 744 mmHg 74%
    21:00 +4°C° 0 mm 2 mps 744 mmHg 79%
    22:00 +3°C° 0 mm 3 mps 745 mmHg 81%
    23:00 +2°C° 0 mm 3 mps 745 mmHg 83%
    Show more